{"data":{"norad_id":53969,"epoch":"2026-09-20T20:57:36.334944Z","epoch_age_seconds":54249,"freshness":"FRESH","line1":"1 53969U 22125F   26263.87333721  .00000985  00000+0  41249-4 0  9992","line2":"2 53969  53.1597  59.8598 0000606  86.7183 273.3889 15.33551347218898","mean_motion":15.33551347,"eccentricity":6.06e-5,"inclination_deg":53.1597,"raan_deg":59.8598,"arg_perigee_deg":86.7183,"mean_anomaly_deg":273.3889,"bstar":4.1249e-5,"rev_number":21889,"period_min":93.899692554605,"perigee_km":464.81207106801,"apogee_km":465.64148675802,"semimajor_km":6843.363778913,"source":"CELESTRAK","updated_at":"2026-09-21T09:00:33.039959Z"}}